Miscellaneous Local Product
Issued by NWS Hastings, NE

Current Version | Previous Version | Text Only | Print | Product List | Glossary On
Versions: 1 2 3 4 5 6 7 8 9 10 11 12 13 14 15 16 17 18 19 20 21 22 23 24 25 26 27 28 29 30 31 32 33 34 35 36 37 38 39 40 41 42 43 44 45 46 47 48 49 50
000
AXUS43 KGID 270302
MISGRI

GID CWA HOURLY WEATHER ROUNDUP
NATIONAL WEATHER SERVICE HASTINGS NE
900 PM CST FRI DEC 26 2014

NOTE: "FAIR" INDICATES FEW OR NO CLOUDS BELOW 12,000 FEET WITH NO
SIGNIFICANT WEATHER AND/OR OBSTRUCTIONS TO VISIBILITY.

...SOUTH CENTRAL NEBRASKA...

CITY           SKY/WX    TMP DP  RH WIND       PRES   REMARKS
GRAND ISLAND   LGT SNOW  22  20  92 NW9       30.08R FOG     WCI  12
HASTINGS       LGT SNOW  23  20  88 N12       30.06R FOG     WCI  12
KEARNEY        CLOUDY    21  18  86 N13       30.09R WCI   9
ORD            LGT SNOW  21  17  84 N12       30.09R FOG     WCI   9
YORK           LGT SNOW  25  25 100 N10       30.04F WCI  15
AURORA         LGT SNOW  24  23  96 NW10      30.06S WCI  13
LEXINGTON      LGT SNOW  22  20  91 NW12      30.11R VSB 3/4 WCI  11
HOLDREGE       LGT SNOW  22  19  89 NW6       30.10R WCI  15
HEBRON         LGT SNOW  28  26  91 N12       30.05R WCI  18

...NEBRASKA PANHANDLE...

CITY           SKY/WX    TMP DP  RH WIND       PRES   REMARKS
CHADRON        CLOUDY    19  14  81 CALM      30.13R
ALLIANCE       CLOUDY    17  14  88 N5        30.07R WCI  10
SCOTTSBLUFF    CLOUDY    16  13  88 W5        30.09R WCI   9
SIDNEY         LGT SNOW  16  13  88 N7        30.07R FOG     WCI   6

...WESTERN AND NORTH CENTRAL NEBRASKA...

CITY           SKY/WX    TMP DP  RH WIND       PRES   REMARKS
VALENTINE      LGT SNOW  18  15  88 N9        30.12R FOG     WCI   7
AINSWORTH      LGT SNOW  18  16  90 N12       30.10R WCI   5
ONEILL         LGT SNOW  21  20  95 N13       30.09S WCI   9
BROKEN BOW     LGT SNOW  20  16  84 N15       30.09R FOG     WCI   6
IMPERIAL       LGT SNOW  19  15  84 N8        30.11R FOG     WCI   9
NORTH PLATTE   LGT SNOW  19  16  88 N5        30.11R FOG     WCI  12
MCCOOK         LGT SNOW  21  19  92 N15       30.13R VSB 3/4 WCI   8

...EASTERN NEBRASKA...

CITY           SKY/WX    TMP DP  RH WIND       PRES   REMARKS
NORFOLK        LGT SNOW  24  21  88 N16       30.04S FOG     WCI  11
SO SIOUX CITY  LGT SNOW  29  25  85 N18       30.04F FOG     WCI  16
TEKAMAH        LGT SNOW  31  29  92 N12       30.02S FOG     WCI  22
COLUMBUS       CLOUDY    25  19  80 N9        30.07R WCI  15
ALBION         LGT SNOW  23  19  83 N13G22    30.06R WCI  11
OMAHA EPPLEY   FRZ DRZL  32  31  96 N8        30.03R FOG     WCI  25
OFFUTT AFB     FRZ RAIN  32  31  95 N5        30.01R FOG     WCI  28
MILLARD        DRIZZLE   32  31  95 N5        30.01F WCI  27
LINCOLN        FRZ RAIN  31  29  92 N10       30.04R FOG     WCI  22
NEBRASKA CITY  CLOUDY    32  32 100 N5        30.01R FOG     WCI  28
BEATRICE       LGT SNOW  31  30  98 N7        30.02F WCI  24
FALLS CITY     CLOUDY    34  32  92 N6        30.00R FOG     WCI  29

...NORTHERN KANSAS...

CITY           SKY/WX    TMP DP  RH WIND       PRES   REMARKS
GOODLAND       FLURRIES  18  16  92 NW8       30.09R WCI   8
HILL CITY      LGT SNOW  24  19  81 N15       30.12R WCI  11
NORTON         LGT SNOW  23  19  86 NW7       30.11R WCI  15
PHILLIPSBURG   LGT SNOW  27  23  86 NW16      30.12R WCI  14
SMITH CENTER   CLOUDY    25  21  86 NW10      30.11R WCI  15
BELOIT         CLOUDY    28  27  93 NW7       30.08R WCI  21
HAYS           CLOUDY    27  16  63 NW10      30.09R WCI  17
RUSSELL        CLOUDY    27  25  92 NW15      30.08R WCI  15
CONCORDIA      LGT SNOW  29  29 100 NW9       30.05R FOG     WCI  20
SALINA         CLOUDY    32  29  88 NW13      30.08R WCI  22
TOPEKA         CLOUDY    38  33  82 NW5       30.01S WCI  34



USA.gov is the U.S. government's official web portal to all federal, state and local government web resources and services.